| time (UTC) | temp C | wind direction | speed KPH | gust KPH | rain 1hr cm | rain 24hr cm | rain mn cm | humidity % | barometer mb |
| 20260504175443 | 19 | 19 | 4.8 | 4.8 | 0.00 | 0.00 | 0.00 | 38 | 1001.9 |
| 20260504173941 | 18 | 177 | 6.4 | 8.0 | 0.00 | 0.00 | 0.00 | 38 | 1002.1 |
| 20260504172437 | 18 | 204 | 8.0 | 9.7 | 0.00 | 0.00 | 0.00 | 37 | 1001.9 |
| 20260504170934 | 19 | 229 | 8.0 | 12.9 | 0.00 | 0.00 | 0.00 | 37 | 1002.0 |
| 20260504150906 | 17 | 56 | 4.8 | 8.0 | 0.00 | 0.00 | 0.00 | 39 | 1004.0 |
| 20260504140852 | 16 | 7 | 9.7 | 16.1 | 0.00 | 0.00 | 0.00 | 39 | 1004.0 |
| 20260504080747 | 6 | 48 | 0.0 | 0.0 | 0.00 | 0.00 | 0.00 | 67 | 1003.6 |
| 20260504050709 | 5 | 57 | 0.0 | 0.0 | 0.00 | 0.00 | 0.00 | 66 | 1003.4 |
| 20260504045203 | 5 | 57 | 0.0 | 0.0 | 0.00 | 0.00 | 0.00 | 64 | 1003.4 |
| 20260504043701 | 5 | 57 | 0.0 | 0.0 | 0.00 | 0.00 | 0.00 | 64 | 1003.5 |
| 20260504042158 | 5 | 56 | 0.0 | 0.0 | 0.00 | 0.00 | 0.00 | 65 | 1003.3 |
| 20260504040653 | 5 | 57 | 0.0 | 0.0 | 0.00 | 0.00 | 0.00 | 65 | 1003.2 |
| 20260504035149 | 5 | 57 | 0.0 | 0.0 | 0.00 | 0.00 | 0.00 | 62 | 1003.3 |
| 20260504033647 | 5 | 57 | 0.0 | 0.0 | 0.00 | 0.00 | 0.00 | 63 | 1003.2 |
| 20260504032144 | 6 | 57 | 0.0 | 0.0 | 0.00 | 0.00 | 0.00 | 63 | 1002.9 |
| 20260504030640 | 5 | 56 | 0.0 | 0.0 | 0.00 | 0.00 | 0.00 | 66 | 1003.3 |
| 20260504025136 | 6 | 56 | 0.0 | 0.0 | 0.00 | 0.00 | 0.00 | 62 | 1003.2 |
| 20260504023633 | 6 | 56 | 0.0 | 0.0 | 0.00 | 0.00 | 0.00 | 63 | 1003.4 |
| 20260504022133 | 6 | 56 | 0.0 | 0.0 | 0.00 | 0.00 | 0.00 | 58 | 1003.3 |
| 20260504020630 | 6 | 56 | 0.0 | 0.0 | 0.00 | 0.00 | 0.00 | 59 | 1003.2 |
| 20260504015125 | 7 | 56 | 0.0 | 0.0 | 0.00 | 0.00 | 0.00 | 60 | 1003.1 |
| 20260504013621 | 7 | 56 | 0.0 | 0.0 | 0.00 | 0.00 | 0.00 | 60 | 1002.8 |
| 20260504012119 | 7 | 55 | 0.0 | 0.0 | 0.00 | 0.00 | 0.00 | 59 | 1002.8 |
| 20260504010620 | 8 | 54 | 0.0 | 1.6 | 0.00 | 0.00 | 0.00 | 54 | 1002.5 |
| 20260504005116 | 9 | 54 | 0.0 | 0.0 | 0.00 | 0.00 | 0.00 | 52 | 1002.3 |
| 20260504003613 | 10 | 55 | 0.0 | 0.0 | 0.00 | 0.00 | 0.00 | 50 | 1002.1 |
| 20260504002110 | 10 | 54 | 0.0 | 0.0 | 0.00 | 0.00 | 0.00 | 47 | 1001.8 |
| 20260504000607 | 10 | 52 | 0.0 | 0.0 | 0.00 | 0.00 | 0.00 | 49 | 1001.7 |
| 20260503235104 | 11 | 50 | 0.0 | 0.0 | 0.00 | 0.00 | 0.00 | 47 | 1001.6 |
| 20260503233602 | 11 | 47 | 0.0 | 0.0 | 0.00 | 0.00 | 0.00 | 40 | 1001.4 |
| 20260503232059 | 12 | 55 | 1.6 | 1.6 | 0.00 | 0.00 | 0.00 | 36 | 1001.3 |
| 20260503230555 | 13 | 33 | 3.2 | 3.2 | 0.00 | 0.00 | 0.00 | 32 | 1001.1 |
| 20260503225050 | 14 | 34 | 1.6 | 1.6 | 0.00 | 0.00 | 0.00 | 31 | 1000.9 |
| 20260503223550 | 14 | 57 | 6.4 | 9.7 | 0.00 | 0.00 | 0.00 | 31 | 1000.9 |
| 20260503222047 | 13 | 286 | 6.4 | 9.7 | 0.00 | 0.00 | 0.00 | 31 | 1000.9 |
| 20260503220543 | 14 | 34 | 4.8 | 9.7 | 0.00 | 0.00 | 0.00 | 32 | 1000.6 |
| 20260503215040 | 13 | 43 | 8.0 | 12.9 | 0.00 | 0.00 | 0.00 | 32 | 1000.9 |
| 20260503213539 | 14 | 347 | 4.8 | 4.8 | 0.00 | 0.00 | 0.00 | 35 | 1000.8 |
| 20260503212036 | 13 | 66 | 4.8 | 8.0 | 0.00 | 0.00 | 0.00 | 35 | 1000.6 |
| 20260503210531 | 12 | 59 | 3.2 | 3.2 | 0.00 | 0.00 | 0.00 | 35 | 1000.8 |
| 20260503205026 | 13 | 294 | 14.5 | 16.1 | 0.00 | 0.00 | 0.00 | 35 | 1001.1 |
| 20260503203523 | 12 | 46 | 0.0 | 1.6 | 0.00 | 0.00 | 0.00 | 35 | 1000.7 |
| 20260503202021 | 13 | 224 | 9.7 | 16.1 | 0.00 | 0.00 | 0.00 | 35 | 1000.7 |
| 20260503200518 | 12 | 24 | 11.3 | 16.1 | 0.00 | 0.00 | 0.00 | 37 | 1000.6 |
| 20260503195015 | 12 | 16 | 3.2 | 3.2 | 0.00 | 0.00 | 0.00 | 39 | 1001.0 |
| 20260503193514 | 12 | 137 | 6.4 | 9.7 | 0.00 | 0.00 | 0.00 | 38 | 1001.0 |
| 20260503192014 | 11 | 232 | 6.4 | 9.7 | 0.00 | 0.00 | 0.00 | 38 | 1001.2 |
| 20260503190510 | 12 | 298 | 11.3 | 17.7 | 0.00 | 0.00 | 0.00 | 37 | 1001.0 |
| 20260503185009 | 12 | 338 | 14.5 | 16.1 | 0.00 | 0.00 | 0.00 | 37 | 1001.0 |
| 20260503183504 | 11 | 30 | 4.8 | 9.7 | 0.00 | 0.00 | 0.00 | 37 | 1000.9 |
| 20260503182004 | 12 | 251 | 4.8 | 4.8 | 0.00 | 0.00 | 0.00 | 36 | 1000.9 |
| 20260503180500 | 11 | 125 | 24.1 | 35.4 | 0.00 | 0.00 | 0.00 | 35 | 1001.0 |